This demonstration page uses our WeatherBlox Daily Observations layout. Learn more.

Left ArrowRight Arrow

39.29038, -76.61219

Hourly Observations for November 26, 2022

Temp ( °F °C ) Dew Point ( °F °C ) Humidity (%) Winds ( mph kmh ) Pressure ( in mb ) Visibility ( mi km ) Precip ( " mm )
12:54 am 00:54 Mostly Clear 39 3.9 30 -1.1 70 70 W 8 13 30.08 1019 10 16 0.00 0.00
1:54 am 01:54 Clear 39 3.9 30 -1.1 70 70 W 8 13 30.08 1019 10 16 0.00 0.00
2:54 am 02:54 Clear 40 4.4 30 -1.1 67 67 WNW 10 17 30.10 1019 10 16 0.00 0.00
3:54 am 03:54 Clear 40 4.4 30 -1.1 67 67 WSW 7 11 30.10 1019 10 16 0.00 0.00
4:54 am 04:54 Clear 38 3.3 29 -1.7 70 70 W 6 9 30.11 1020 10 16 0.00 0.00
5:54 am 05:54 Clear 37 2.8 29 -1.7 72 72 W 6 9 30.11 1020 10 16 0.00 0.00
6:38 am 06:38 Clear 37 2.8 28 -2.2 70 70 WSW 6 9 30.14 1021 10 16 0.00 0.00
6:54 am 06:54 Clear 38 3.3 28 -2.2 67 67 W 5 7 30.14 1021 10 16 0.00 0.00
7:54 am 07:54 Sunny 41 5 30 -1.1 65 65 W 5 7 30.15 1021 10 16 0.00 0.00
8:54 am 08:54 Sunny 48 8.9 32 0 54 54 W 5 7 30.15 1021 10 16 0.00 0.00
9:54 am 09:54 Mostly Sunny 52 11.1 31 -0.6 44 44 WNW 9 15 30.15 1021 10 16 0.00 0.00
10:54 am 10:54 Mostly Sunny 54 12.2 31 -0.6 41 41 W 9 15 30.14 1021 10 16 0.00 0.00
11:54 am 11:54 Mostly Sunny 57 13.9 30 -1.1 35 35 W 10 17 30.11 1020 10 16 0.00 0.00
12:54 pm 12:54 Mostly Sunny 58 14.4 28 -2.2 32 32 W 13 20 30.08 1019 10 16 0.00 0.00
1:54 pm 13:54 Mostly Sunny 60 15.6 29 -1.7 30 30 WSW 12 19 30.07 1018 10 16 0.00 0.00
2:54 pm 14:54 Mostly Sunny 60 15.6 30 -1.1 32 32 W 10 17 30.07 1018 10 16 0.00 0.00
3:54 pm 15:54 Mostly Sunny 58 14.4 30 -1.1 34 34 W 7 11 30.06 1018 10 16 0.00 0.00
4:54 pm 16:54 Mostly Clear 54 12.2 28 -2.2 37 37 SW 3 6 30.07 1018 10 16 0.00 0.00
5:54 pm 17:54 Mostly Clear 51 10.6 29 -1.7 42 42 Calm 30.06 1018 10 16 0.00 0.00
6:54 pm 18:54 Partly Cloudy 47 8.3 30 -1.1 51 51 Calm 30.07 1018 10 16 0.00 0.00
7:54 pm 19:54 Partly Cloudy 44 6.7 31 -0.6 60 60 Calm 30.06 1018 10 16 0.00 0.00
8:54 pm 20:54 Mostly Cloudy 43 6.1 31 -0.6 62 62 Calm 30.06 1018 10 16 0.00 0.00
9:54 pm 21:54 Mostly Cloudy 41 5 31 -0.6 67 67 Calm 30.04 1017 10 16 0.00 0.00
10:54 pm 22:54 Mostly Cloudy 40 4.4 31 -0.6 70 70 WSW 3 6 30.01 1016 10 16 0.00 0.00
11:54 pm 23:54 Cloudy 45 7.2 30 -1.1 55 55 SSW 3 6 30.00 1016 10 16 0.00 0.00

Powered by AerisWeather